Regional Weather Roundup
Issued by NWS

Home | Current Version | Previous Version | Text Only | Print | Product List | Glossary On
Versions: 1 2 3 4 5 6 7 8 9 10 11 12 13 14 15 16 17 18 19 20 21 22 23 24 25 26 27 28 29 30 31 32 33 34 35 36 37 38 39 40 41 42 43 44 45 46 47 48 49 50
000
ASUS46 KPQR 181110
RWROR

OREGON REGIONAL WEATHER ROUNDUP
NATIONAL WEATHER SERVICE PORTLAND OR
400 AM PDT WED OCT 18 2017

NOTE: "FAIR" INDICATES FEW OR NO CLOUDS BELOW 12,000 FEET WITH
NO SIGNIFICANT WEATHER AND/OR OBSTRUCTIONS TO VISIBILITY.

ORZ001>013-181200-
NORTHWEST OREGON


CITY           SKY/WX    TMP DP  RH WIND       PRES   REMARKS
ASTORIA        CLOUDY    47  44  90 CALM      29.98F
NEWPORT        FOG       52  52 100 S6        30.06F VSB 1
PORTLAND       CLOUDY    50  50 100 NW3       30.05F FOG
VANCOUVER WA   CLOUDY    50  50 100 CALM      30.04F
SCAPPOOSE      CLOUDY    49  48  97 SE3       30.03F FOG
HILLSBORO      CLOUDY    49  48  97 CALM      30.03F FOG
AURORA         CLOUDY    51  51 100 CALM      30.05F
MCMINNVILLE    CLOUDY    53  52  96 CALM      30.04F
SALEM          CLOUDY    56  52  86 S7        30.03F
CORVALLIS      CLOUDY    54  52  93 S6        30.05F
EUGENE         MOCLDY    51  50  96 S6        30.06F
$$

ORZ021-028-181200-
SOUTHWEST OREGON


CITY           SKY/WX    TMP DP  RH WIND       PRES   REMARKS
NORTH BEND     MOCLDY    50  49  96 SE8       30.09F
BROOKINGS      CLEAR     48  46  93 CALM      30.09F
ROSEBURG       CLEAR     47  45  93 CALM      30.09F
SEXTON SUMMIT  CLEAR     53  33  46 S12       30.12F
GRANTS PASS    FAIR      41  36  81 CALM      30.14S
MEDFORD        CLEAR     45  36  70 S3        30.10F
$$

ORZ014>016-041-181200-
COLUMBIA GORGE


CITY           SKY/WX    TMP DP  RH WIND       PRES   REMARKS
TROUTDALE      CLOUDY    52  46  80 E7        30.05R
HOOD RIVER     CLOUDY    41  41 100 CALM      30.06S
THE DALLES     MOCLDY    48  45  89 NW5       30.05F
$$

ORZ029>031-041-044-049-050-061>064-502-503-505>511-181200-
EASTERN OREGON


CITY           SKY/WX    TMP DP  RH WIND       PRES   REMARKS
MADRAS         CLOUDY   N/A N/A N/A S3        30.06F
REDMOND        CLOUDY    44  34  67 N3        30.05F
BEND           MOCLDY    55  36  47 SW12      30.07S
PRINEVILLE     CLOUDY    43  37  81 CALM      30.07F
KLAMATH FALLS  PTCLDY    31  24  75 CALM      30.17F
LAKEVIEW       PTCLDY    23  17  78 N7        30.19F WCI  15
HERMISTON      CLOUDY    50  45  83 SE5       30.03F
PENDLETON      CLOUDY    49  42  77 SE3       30.03F
JOHN DAY       PTCLDY    47  33  58 E7        30.10S
MEACHAM        MOCLDY    42  39  89 CALM      30.06S
LA GRANDE      PTCLDY    48  41  76 SW3       30.07S
BAKER CITY     PTCLDY    39  33  79 S6        30.09F WCI  35
BURNS          CLEAR     26  25  96 CALM      30.15S
ROME             N/A     37  23  56 S6        30.14F WCI  32
ONTARIO        CLEAR     34  29  82 CALM      30.12F
$$



USA.gov is the U.S. government's official web portal to all federal, state and local government web resources and services.